EW0199 Weather Reports


Display with metric or nautical units.
time (UTC)temp
F
wind
direction
speed
MPH
gust
MPH
rain 1hr
in
rain 24hr
in
rain mn
in
humidity
%
barometer
mb
20260504050337 41 343 0.0 0.0 0.00 0.02 0.00 81 1001.0
20260504045919 41 343 0.0 0.0 0.00 0.02 0.02 81 1001.0
20260504045342 41 343 0.0 0.0 0.00 0.02 0.02 81 1001.0
20260504044904 42 344 0.0 0.0 0.00 0.02 0.02 78 1001.0
20260504044325 42 344 0.0 0.0 0.00 0.02 0.02 75 1001.1
20260504043844 42 343 0.0 0.0 0.00 0.02 0.02 80 1001.1
20260504043353 43 343 0.0 0.0 0.00 0.02 0.02 79 1001.1
20260504042917 43 343 0.0 0.0 0.00 0.02 0.02 75 1001.2
20260504042338 43 343 0.0 0.0 0.00 0.02 0.02 73 1001.2
20260504041853 43 344 0.0 0.0 0.00 0.02 0.02 70 1001.2
20260504041354 44 344 0.0 0.0 0.00 0.02 0.02 71 1001.2
20260504040923 44 344 0.0 0.0 0.00 0.02 0.02 69 1001.3
20260504040344 45 344 0.0 0.0 0.00 0.02 0.02 70 1001.4
20260504035345 46 343 0.0 0.0 0.00 0.02 0.02 76 1001.4
20260504034854 46 344 0.0 0.0 0.00 0.02 0.02 66 1001.3
20260504034359 47 344 0.0 0.0 0.00 0.02 0.02 60 1001.4
20260504033919 48 344 0.0 0.0 0.00 0.02 0.02 59 1001.3
20260504033426 48 344 0.0 0.0 0.00 0.02 0.02 58 1001.4
20260504032824 49 344 0.0 0.0 0.00 0.02 0.02 57 1001.4
20260504032350 49 344 0.0 0.0 0.00 0.02 0.02 56 1001.3
20260504031909 50 344 0.0 0.0 0.00 0.02 0.02 55 1001.3
20260504031329 51 344 0.0 0.0 0.00 0.02 0.02 53 1001.4
20260504030843 52 344 0.0 0.0 0.00 0.02 0.02 50 1001.3
20260504025843 54 344 0.0 0.0 0.00 0.02 0.02 46 1001.2
20260504024845 55 343 0.0 0.0 0.00 0.02 0.02 44 1001.2
20260504024410 55 344 0.0 1.0 0.00 0.02 0.02 42 1001.2
20260504023919 54 312 0.0 0.0 0.00 0.02 0.02 44 1001.1
20260504023336 55 312 0.0 0.0 0.00 0.02 0.02 44 1001.1
20260504022858 56 312 0.0 0.0 0.00 0.02 0.02 44 1001.0
20260504022420 57 312 0.0 0.0 0.00 0.02 0.02 39 1000.9
20260504021922 57 312 0.0 0.0 0.00 0.02 0.02 39 1000.8
20260504021409 58 312 0.0 1.0 0.00 0.02 0.02 39 1000.7
20260504020343 58 312 0.0 1.0 0.00 0.02 0.02 39 1000.6
20260504015910 59 312 0.0 1.0 0.00 0.02 0.02 38 1000.6
20260504015331 59 312 0.0 1.0 0.00 0.02 0.02 38 1000.4
20260504014854 59 312 0.0 1.0 0.00 0.02 0.02 39 1000.4
20260504014403 59 311 0.0 2.0 0.00 0.02 0.02 40 1000.4
20260504013916 60 312 0.0 2.0 0.00 0.02 0.02 39 1000.3
20260504013419 60 302 0.0 1.0 0.00 0.02 0.02 39 1000.2
20260504012835 61 298 0.0 1.0 0.00 0.02 0.02 38 1000.1
20260504012358 61 297 0.0 1.0 0.00 0.02 0.02 39 1000.2
20260504011906 62 302 0.0 1.0 0.00 0.02 0.02 36 1000.0
20260504011418 63 303 0.0 1.0 0.00 0.02 0.02 36 999.9
20260504010922 63 303 0.0 1.0 0.00 0.02 0.02 34 999.9
20260504010344 64 303 0.0 2.0 0.00 0.02 0.02 34 999.8
20260504005343 66 293 1.0 4.0 0.00 0.02 0.02 33 999.6
20260504004344 67 309 2.0 5.0 0.00 0.02 0.02 31 999.5
20260504003347 68 320 4.0 7.0 0.00 0.02 0.02 30 999.5
20260504002343 68 310 4.0 8.0 0.00 0.02 0.02 30 999.4
20260504001906 69 310 4.0 10.0 0.00 0.02 0.02 30 999.3
20260504001328 69 306 4.0 11.0 0.00 0.02 0.02 30 999.3
20260504000851 69 321 5.0 12.0 0.00 0.02 0.02 30 999.3
20260504000416 69 326 5.0 12.0 0.00 0.02 0.02 30 999.2
20260503235834 69 298 3.0 15.0 0.00 0.02 0.02 31 999.1
20260503235339 70 320 6.0 15.0 0.00 0.02 0.02 31 999.1
20260503234837 70 315 3.0 7.0 0.00 0.02 0.02 34 999.1
20260503234355 70 233 1.0 6.0 0.00 0.02 0.02 35 999.1
20260503233851 70 288 1.0 5.0 0.00 0.02 0.02 36 999.1
20260503232921 70 161 2.0 7.0 0.00 0.02 0.02 37 999.0
20260503232419 69 290 3.0 7.0 0.00 0.02 0.02 38 999.0
20260503231349 68 264 2.0 5.0 0.00 0.02 0.02 39 999.0
20260503230335 68 257 2.0 7.0 0.00 0.02 0.02 40 999.0
20260503225833 68 300 1.0 5.0 0.00 0.02 0.02 40 999.0
20260503225347 68 267 3.0 7.0 0.00 0.02 0.02 40 999.1
20260503224909 68 286 3.0 6.0 0.00 0.02 0.02 40 999.1
20260503223920 68 281 1.0 5.0 0.00 0.02 0.02 43 999.1
20260503223335 67 229 0.0 3.0 0.00 0.02 0.02 47 999.2
20260503222838 66 274 0.0 5.0 0.00 0.02 0.02 46 999.3
20260503222402 65 310 2.0 5.0 0.00 0.02 0.02 44 999.3
20260503221911 65 311 1.0 4.0 0.00 0.02 0.02 44 999.2
20260503221328 66 298 1.0 6.0 0.00 0.02 0.02 44 999.1
20260503220921 67 341 1.0 6.0 0.00 0.02 0.02 45 999.2
20260503220431 66 303 0.0 17.0 0.00 0.02 0.02 48 999.3
20260503215829 66 151 6.0 17.0 0.00 0.02 0.02 43 999.4
20260503215339 67 267 9.0 21.0 0.00 0.02 0.02 38 999.3
20260503214343 68 245 4.0 13.0 0.00 0.02 0.02 38 999.1
20260503213906 68 272 6.0 12.0 0.00 0.02 0.02 38 999.2
20260503213437 68 186 2.0 13.0 0.00 0.02 0.02 38 999.1
20260503212926 68 217 6.0 13.0 0.00 0.02 0.02 38 999.1
20260503212324 69 298 5.0 12.0 0.00 0.02 0.02 37 999.1
20260503211853 70 277 7.0 12.0 0.00 0.02 0.02 36 999.1
20260503211420 70 288 5.0 13.0 0.00 0.02 0.02 36 999.1
20260503210840 70 314 7.0 18.0 0.00 0.02 0.02 37 999.1
20260503210408 70 265 8.0 18.0 0.00 0.02 0.02 36 999.3
20260503205329 70 316 7.0 14.0 0.00 0.02 0.02 34 999.4
20260503204843 70 247 4.0 11.0 0.00 0.02 0.02 36 999.4
20260503204407 70 275 5.0 18.0 0.00 0.02 0.02 35 999.5
20260503203917 70 292 5.0 14.0 0.00 0.02 0.02 35 999.4
20260503203441 70 317 8.0 14.0 0.00 0.02 0.02 36 999.4
20260503202841 70 282 2.0 15.0 0.00 0.02 0.02 39 999.6
20260503201840 70 295 5.0 18.0 0.00 0.02 0.02 37 999.7
20260503201353 70 293 4.0 16.0 0.00 0.02 0.02 38 999.8
20260503200902 69 283 7.0 16.0 0.00 0.02 0.02 38 999.8
20260503200350 69 236 3.0 9.0 0.00 0.02 0.02 38 1000.1
20260503195852 70 212 3.0 13.0 0.00 0.02 0.02 39 1000.1
20260503195355 69 290 3.0 15.0 0.00 0.02 0.02 38 1000.2
20260503194927 69 275 5.0 15.0 0.00 0.02 0.02 38 1000.3
20260503194328 69 210 7.0 15.0 0.00 0.02 0.02 38 1000.4
20260503193832 69 296 5.0 10.0 0.00 0.02 0.02 38 1000.3
20260503193350 69 152 2.0 17.0 0.00 0.02 0.02 42 1000.4
20260503192915 68 283 7.0 17.0 0.00 0.02 0.02 38 1000.7
20260503192326 69 314 4.0 15.0 0.00 0.02 0.02 37 1000.6
20260503191855 69 289 5.0 14.0 0.00 0.02 0.02 38 1000.7
20260503191402 69 285 8.0 14.0 0.00 0.02 0.02 37 1000.7
20260503190907 69 245 4.0 10.0 0.00 0.02 0.02 38 1000.7
20260503190409 68 306 3.0 11.0 0.00 0.02 0.02 40 1000.7
20260503185925 69 231 3.0 16.0 0.00 0.02 0.02 39 1000.9
20260503185323 69 300 7.0 16.0 0.00 0.02 0.02 38 1000.8
20260503184843 68 253 6.0 14.0 0.00 0.02 0.02 38 1001.0
20260503184352 68 222 5.0 14.0 0.00 0.02 0.02 38 1001.1
20260503183856 68 283 1.0 10.0 0.00 0.02 0.02 39 1001.1
20260503183411 69 295 4.0 10.0 0.00 0.02 0.02 38 1001.2
20260503182345 69 224 3.0 11.0 0.00 0.02 0.02 39 1001.3
20260503181909 68 129 3.0 9.0 0.00 0.02 0.02 40 1001.4
20260503180827 68 227 3.0 12.0 0.00 0.02 0.02 39 1001.5
20260503180346 68 283 3.0 12.0 0.00 0.02 0.02 40 1001.6
20260503175842 68 302 3.0 8.0 0.00 0.02 0.02 39 1001.7
20260503175408 68 163 3.0 15.0 0.00 0.02 0.02 40 1001.7
20260503174327 68 312 5.0 10.0 0.00 0.02 0.02 40 1001.7
20260503173848 68 327 2.0 10.0 0.00 0.02 0.02 41 1001.7
20260503173401 67 255 2.0 10.0 0.00 0.02 0.02 40 1001.9
20260503172859 67 255 3.0 11.0 0.00 0.02 0.02 41 1002.0
20260503172421 66 141 4.0 13.0 0.00 0.02 0.02 41 1002.0
20260503171839 66 281 6.0 13.0 0.00 0.02 0.02 41 1002.1
20260503171359 66 304 6.0 12.0 0.00 0.02 0.02 41 1002.3
20260503170859 66 189 5.0 13.0 0.00 0.02 0.02 42 1002.3
20260503170420 67 244 4.0 13.0 0.00 0.02 0.02 41 1002.4
20260503150901 58 241 2.0 9.0 0.00 0.02 0.02 54 1004.0
20260503150409 58 316 4.0 8.0 0.00 0.02 0.02 54 1004.0
20260503131403 46 245 0.0 1.0 0.00 0.02 0.02 88 1005.1
20260503130825 46 157 0.0 1.0 0.00 0.02 0.02 92 1005.1
20260503130352 45 157 0.0 1.0 0.00 0.02 0.02 94 1005.1
20260503110326 41 160 0.0 0.0 0.02 0.02 0.02 93 1005.4
20260503090342 39 264 0.0 0.0 0.00 0.00 0.00 89 1006.4
20260503081415 39 264 0.0 0.0 0.00 0.00 0.00 91 1006.6
20260503080914 39 264 0.0 0.0 0.00 0.00 0.00 91 1006.7
20260503080335 38 264 0.0 0.0 0.00 0.00 0.00 90 1006.7
20260503072900 38 264 0.0 0.0 0.00 0.00 0.00 91 1006.9
20260503072422 38 264 0.0 0.0 0.00 0.00 0.00 91 1007.0
20260503071921 38 264 0.0 0.0 0.00 0.00 0.00 91 1007.0
20260503071328 38 264 0.0 1.0 0.00 0.00 0.00 91 1007.1
20260503070847 38 264 0.0 1.0 0.00 0.00 0.00 91 1007.4
20260503070416 38 264 0.0 0.0 0.00 0.00 0.00 91 1007.5
20260503060343 37 264 0.0 0.0 0.00 0.00 0.00 89 1008.1
20260503054823 37 264 0.0 0.0 0.00 0.00 0.00 87 1008.2
20260503054329 37 264 0.0 0.0 0.00 0.00 0.00 88 1008.3
20260503053836 37 264 0.0 1.0 0.00 0.00 0.00 86 1008.4
20260503053341 36 264 0.0 1.0 0.00 0.00 0.00 84 1008.5
20260503052828 36 262 0.0 0.0 0.00 0.00 0.00 81 1008.3
20260503052334 36 262 0.0 1.0 0.00 0.00 0.00 81 1008.6
20260503051841 36 262 0.0 1.0 0.00 0.00 0.00 79 1008.6
20260503051348 36 262 0.0 0.0 0.00 0.00 0.00 79 1008.6
20260503050834 36 262 0.0 0.0 0.00 0.00 0.00 79 1008.5